FW3162 Easton MD US current weather conditions

sailwx.info

Wind from 250 at 0 knots gusting 5

Air temperature 2.8° C
Dewpoint -5.6° C

Last reported at 2019-Dec-11 21:00 UTC.
Time now 2019-Dec-11 21:41 UTC

Location: N 38°47' W 076°03'.
View on Google Maps.

See reports from other nearby stations

  
Tides and Currents Weather Stations Pressure Air Temp Water Temp Dewpoint Dewpoint Depression Visibility Wind Speed Wind Dir Waves Ship Positions
date/time (UTC)wind fromknots sea level pressurealtimeterstation pressurevisibilityair tempwater tempwave heightnotes
2019-Dec-11 21:00 250 0 gusting 5 2.8
2019-Dec-11 20:45 166 0 gusting 6 2.8
2019-Dec-11 20:30 293 1 gusting 6 2.8
2019-Dec-11 20:15 207 1 gusting 7 3.3
2019-Dec-11 20:00 195 0 gusting 5 3.3
2019-Dec-11 19:46 278 0 gusting 7 3.9
2019-Dec-11 19:30 247 1 gusting 9 3.9
2019-Dec-11 19:15 214 1 gusting 8 3.9
2019-Dec-11 19:00 289 3 gusting 7 3.9
2019-Dec-11 18:45 293 4 gusting 9 3.9
2019-Dec-11 18:30 281 1 gusting 9 3.9
2019-Dec-11 18:15 317 1 gusting 6 3.9
2019-Dec-11 18:00 032 0 gusting 8 3.9
2019-Dec-11 17:45 275 0 gusting 6 3.9
2019-Dec-11 17:30 304 2 gusting 9 3.9
2019-Dec-11 17:17 220 2 gusting 10 3.3
2019-Dec-11 17:03 244 1 gusting 7 3.9
2019-Dec-11 16:47 292 0 gusting 8 3.3
2019-Dec-11 16:33 271 4 gusting 8 3.3
2019-Dec-11 16:16 076 1 gusting 6 3.3
2019-Dec-11 16:04 309 2 gusting 9 3.3
2019-Dec-11 15:47 296 1 gusting 8 3.3
2019-Dec-11 15:33 282 2 gusting 7 2.8
2019-Dec-11 15:17 050 1 gusting 8 2.8
2019-Dec-11 15:01 316 1 gusting 6 2.8
2019-Dec-11 14:47 321 0 gusting 6 2.2
2019-Dec-11 14:31 261 0 gusting 4 1.7
2019-Dec-11 14:16 337 0 gusting 4 1.1
2019-Dec-11 14:02 266 0 gusting 6 1.1
2019-Dec-11 13:46 065 2 gusting 6 0.6
2019-Dec-11 13:31 311 0.6
2019-Dec-11 13:17 300 0.6
2019-Dec-11 13:01 284 0.6
2019-Dec-11 12:46 285 0.6
2019-Dec-11 12:31 323 0 gusting 6 0.6
2019-Dec-11 12:15 266 0.6
2019-Dec-11 12:01 195 0 gusting 3 0.6
2019-Dec-11 11:46 162 0.6
2019-Dec-11 11:31 346 0 gusting 4 0.6
2019-Dec-11 11:15 103 -0.0
2019-Dec-11 11:01 106 -0.0
2019-Dec-11 10:45 068 -0.0
2019-Dec-11 10:32 120 0 gusting 3 -0.0
2019-Dec-11 10:17 314 -0.0
2019-Dec-11 10:00 283 -0.0
2019-Dec-11 09:45 295 -0.0
2019-Dec-11 09:31 070 -0.0
2019-Dec-11 09:15 228 -0.0
2019-Dec-11 09:00 283 -0.0
2019-Dec-11 08:45 074 0.6
2019-Dec-11 08:30 187 0 gusting 6 0.6
2019-Dec-11 08:15 285 0.6
2019-Dec-11 08:00 262 0.6
2019-Dec-11 07:46 278 1 gusting 9 0.6
2019-Dec-11 07:30 096 1 gusting 8 1.1
2019-Dec-11 07:16 056 2 gusting 10 1.7
2019-Dec-11 07:03 271 3 gusting 8 2.2
2019-Dec-11 06:49 071 3 gusting 9 2.8
2019-Dec-11 06:32 032 4 gusting 9 3.3
2019-Dec-11 06:17 041 3 gusting 9 3.3
2019-Dec-11 06:02 054 1 gusting 7 3.9
2019-Dec-11 05:47 076 0 gusting 6 3.9
2019-Dec-11 05:32 057 1 gusting 6 4.4
2019-Dec-11 05:16 269 0 gusting 6 4.4
2019-Dec-11 05:02 071 2 gusting 9 5.0
2019-Dec-11 04:46 051 2 gusting 7 5.6
2019-Dec-11 04:32 018 1 gusting 9 5.6
2019-Dec-11 04:16 334 2 gusting 6 6.1
2019-Dec-11 04:01 006 1 gusting 6 6.1
2019-Dec-11 03:46 281 0 gusting 5 6.1
2019-Dec-11 03:30 208 0 gusting 6 6.7
2019-Dec-11 03:15 240 0 gusting 6 6.7
2019-Dec-11 03:00 101 2 gusting 9 6.7
2019-Dec-11 02:46 236 1 gusting 10 6.7
2019-Dec-11 02:31 053 0 gusting 7 6.7
2019-Dec-11 02:15 295 3 gusting 10 7.2
2019-Dec-11 02:00 008 1 gusting 9 7.2
2019-Dec-11 01:48 358 2 gusting 8 8.3
2019-Dec-11 01:33 094 1 gusting 6 8.3
2019-Dec-11 01:19 351 2 gusting 10 8.9
2019-Dec-11 01:03 285 4 gusting 13 9.4
2019-Dec-11 00:47 039 0 gusting 6 10.0
2019-Dec-11 00:32 037 1 gusting 5 10.6
2019-Dec-11 00:16 297 10.6
2019-Dec-11 00:01 157 10.6
2019-Dec-10 23:46 304 0 gusting 2 10.6
2019-Dec-10 23:31 288 2 gusting 7 11.1
2019-Dec-10 23:16 291 3 gusting 6 12.2
2019-Dec-10 23:01 172 0 gusting 7 12.2
2019-Dec-10 22:46 316 1 gusting 6 12.8
2019-Dec-10 22:32 298 0 gusting 5 12.8
2019-Dec-10 22:15 308 1 gusting 4 12.8
2019-Dec-10 22:01 080 0 gusting 5 13.3
2019-Dec-10 21:45 120 3 gusting 8 13.9
2019-Dec-10 21:30 047 2 gusting 8 13.9
2019-Dec-10 21:15 238 14.4
2019-Dec-10 21:00 266 14.4
2019-Dec-10 20:45 206 14.4
2019-Dec-10 20:31 220 0 gusting 2 15.0
2019-Dec-10 20:18 197 0 gusting 3 15.0
2019-Dec-10 20:04 248 1 gusting 4 15.0
2019-Dec-10 19:46 171 0 gusting 4 15.0
2019-Dec-10 19:32 236 2 gusting 6 15.0
2019-Dec-10 19:19 254 2 gusting 6 15.0
2019-Dec-10 19:04 239 3 gusting 11 15.0
2019-Dec-10 18:50 221 1 gusting 9 15.0
2019-Dec-10 18:33 234 3 gusting 7 15.0
2019-Dec-10 18:18 266 2 gusting 7 15.0
2019-Dec-10 18:02 229 3 gusting 8 15.6
2019-Dec-10 17:49 330 1 gusting 8 16.1
2019-Dec-10 17:32 207 4 gusting 10 16.7
2019-Dec-10 17:17 145 3 gusting 10 17.2
2019-Dec-10 17:00 212 5 gusting 12 17.2
2019-Dec-10 16:47 181 5 gusting 13 16.7
2019-Dec-10 16:32 302 1 gusting 13 16.7
2019-Dec-10 16:16 212 5 gusting 12 16.1
2019-Dec-10 16:01 267 2 gusting 13 16.1
2019-Dec-10 15:47 235 4 gusting 11 16.1
2019-Dec-10 15:31 173 4 gusting 12 16.1
2019-Dec-10 15:16 153 4 gusting 12 16.7
2019-Dec-10 15:02 210 4 gusting 10 16.7
2019-Dec-10 14:46 149 6 gusting 13 16.1
2019-Dec-10 14:32 207 6 gusting 13 16.1
2019-Dec-10 14:16 218 6 gusting 11 16.1
2019-Dec-10 14:01 190 2 gusting 12 16.1
2019-Dec-10 13:45 242 5 gusting 13 15.6
2019-Dec-10 13:31 060 4 gusting 14 15.6
2019-Dec-10 13:16 226 5 gusting 13 15.6
2019-Dec-10 13:00 201 4 gusting 12 15.0
2019-Dec-10 12:45 137 5 gusting 11 15.0
2019-Dec-10 12:30 147 6 gusting 13 15.0
2019-Dec-10 12:15 221 3 gusting 8 15.0
2019-Dec-10 12:00 226 6 gusting 10 15.0
2019-Dec-10 11:45 182 3 gusting 10 14.4
2019-Dec-10 11:30 200 4 gusting 11 14.4
2019-Dec-10 11:15 260 4 gusting 13 14.4
2019-Dec-10 11:00 159 4 gusting 14 14.4
2019-Dec-10 10:45 214 2 gusting 8 14.4
2019-Dec-10 10:30 233 3 gusting 13 14.4
2019-Dec-10 10:15 143 2 gusting 12 14.4
2019-Dec-10 10:00 235 6 gusting 13 14.4
2019-Dec-10 09:45 218 3 gusting 12 14.4
2019-Dec-10 09:30 203 3 gusting 9 14.4
2019-Dec-10 09:03 252 4 gusting 12 15.0
2019-Dec-10 08:47 165 6 gusting 11 15.0
2019-Dec-10 08:32 218 4 gusting 12 15.0
2019-Dec-10 08:16 141 4 gusting 12 15.0
2019-Dec-10 08:01 197 4 gusting 12 15.0
2019-Dec-10 07:46 290 4 gusting 11 15.0
2019-Dec-10 07:31 169 2 gusting 11 15.0
2019-Dec-10 07:16 184 3 gusting 13 15.0
2019-Dec-10 07:01 221 4 gusting 12 14.4
2019-Dec-10 06:46 191 4 gusting 10 14.4
2019-Dec-10 06:31 195 3 gusting 13 14.4
2019-Dec-10 06:16 163 5 gusting 10 14.4
2019-Dec-10 06:01 211 6 gusting 12 14.4
2019-Dec-10 05:46 210 4 gusting 13 14.4
2019-Dec-10 05:31 269 5 gusting 13 14.4
2019-Dec-10 05:16 246 6 gusting 13 14.4
2019-Dec-10 05:01 231 6 gusting 13 14.4
2019-Dec-10 04:45 173 5 gusting 14 14.4
2019-Dec-10 04:31 227 5 gusting 13 14.4
2019-Dec-10 04:16 022 6 gusting 14 14.4
2019-Dec-10 04:01 221 4 gusting 13 13.9
2019-Dec-10 03:45 217 4 gusting 12 13.9
2019-Dec-10 03:31 222 2 gusting 10 13.9
2019-Dec-10 03:15 219 3 gusting 10 13.3
2019-Dec-10 03:00 235 3 gusting 9 13.3
2019-Dec-10 02:46 193 2 gusting 11 13.3
2019-Dec-10 02:31 196 1 gusting 6 12.8
2019-Dec-10 02:15 238 5 gusting 13 12.8
2019-Dec-10 02:00 209 2 gusting 9 12.8
2019-Dec-10 01:45 210 2 gusting 7 12.8
2019-Dec-10 01:30 179 2 gusting 8 12.8
2019-Dec-10 01:15 171 3 gusting 11 12.2
2019-Dec-10 01:00 217 2 gusting 9 12.2
2019-Dec-10 00:45 201 4 gusting 9 11.7
2019-Dec-10 00:30 221 3 gusting 6 11.7
2019-Dec-10 00:15 153 3 gusting 9 11.1
2019-Dec-10 00:00 217 2 gusting 7 11.1
2019-Dec-09 23:45 226 2 gusting 6 10.6
2019-Dec-09 23:30 162 1 gusting 10 10.6
2019-Dec-09 23:18 128 0 gusting 7 10.6
2019-Dec-09 23:02 206 3 gusting 7 10.0
2019-Dec-09 22:47 232 0 gusting 3 10.0
2019-Dec-09 22:32 236 0 gusting 3 9.4
2019-Dec-09 22:16 280 0 gusting 2 9.4
2019-Dec-09 22:02 218 0 gusting 4 9.4
2019-Dec-09 21:46 203 0 gusting 5 9.4
2019-Dec-09 21:31 234 0 gusting 3 9.4
2019-Dec-09 21:16 202 0 gusting 3 9.4
2019-Dec-09 21:01 207 1 gusting 5 9.4